Regional Weather Roundup
Issued by NWS

Home | Current Version | Previous Version | Text Only | Print | Product List | Glossary On
Versions: 1 2 3 4 5 6 7 8 9 10 11 12 13 14 15 16 17 18 19 20 21 22 23 24 25 26 27 28 29 30 31 32 33 34 35 36 37 38 39 40 41 42 43 44 45 46 47 48 49 50
000
ASUS43 KLSX 262310
RWRMO

WEATHER SUMMARY FOR MISSOURI
NATIONAL WEATHER SERVICE SPRINGFIELD MO
600 PM CDT THU APR 26 2018

NOTE: "FAIR" INDICATES FEW OR NO CLOUDS BELOW 12,000 FEET WITH NO
       SIGNIFICANT WEATHER AND/OR OBSTRUCTIONS TO VISIBILITY.
       CURRENT SKY AND/OR WEATHER CONDITIONS ARE NOT AVAILABLE FOR
       CHILLICOTHE AND FARMINGTON.

MOZ001>031-035>038-043-044-053-054-270000-
...NORTHERN AND WESTERN MISSOURI...

CITY           SKY/WX    TMP DP  RH WIND       PRES   REMARKS
KANSAS CTY INT PTSUNNY   67  43  41 W12G20    29.94S
KANSAS C DTWN  MOSUNNY   68  46  45 W12       29.93S
LEE`S SUMMIT   MOSUNNY   67  43  41 NW13      29.95R
ST JOSEPH      MOSUNNY   69  40  34 NW10      29.94S
CHILLICOTHE      N/A     71  38  29 NW8G18    29.92S
KIRKSVILLE     MOSUNNY   69  34  27 VRB7      29.90S

$$
MOZ066>068-077>081-088>096-101>105-270000-
...SOUTHWEST MISSOURI...

CITY           SKY/WX    TMP DP  RH WIND       PRES   REMARKS
SPRINGFIELD    CLOUDY    62  47  57 NW3       29.95F
JOPLIN         MOSUNNY   62  49  62 W8        29.99R
BRANSON        PTSUNNY   61  46  59 W3        29.98S

$$
MOZ032>034-039>042-045>050-055>058-069>072-270000-
...CENTRAL MISSOURI...

CITY           SKY/WX    TMP DP  RH WIND       PRES   REMARKS
COLUMBIA       CLOUDY    68  39  34 W10       29.91S
JEFFERSON CITY CLOUDY    69  39  33 NW6       29.90F
ROLLA          CLOUDY    64  45  49 W6        29.93S
SEDALIA        MOSUNNY   68  46  45 W10       29.94S
WHITEMAN AFB   PTSUNNY   67  45  46 W6        29.90R
WARRENSBURG    MOSUNNY   68  41  37 W10       29.94R
OSAGE BEACH    CLOUDY    67  46  47 N5        29.93F

$$
MOZ051-052-059>065-270000-
...EAST CENTRAL MISSOURI...

CITY           SKY/WX    TMP DP  RH WIND       PRES   REMARKS
ST LOUIS INTL  PTSUNNY   70  41  34 VRB7      29.89S
SPIRIT OF STL  CLOUDY    70  42  36 NW9G17    29.88S
ST CHARLES     CLOUDY    70  39  32 NW7       29.87S

$$
MOZ072>076-082>087-097>100-106>115-270000-
...SOUTH CENTRAL AND SOUTHEAST MISSOURI...

CITY           SKY/WX    TMP DP  RH WIND       PRES   REMARKS
CAPE GIRARDEAU FAIR      66  44  45 N7        29.89F
FARMINGTON     SUNNY     66  45  46 N6        29.91S
POPLAR BLUFF   FAIR      65  44  46 E8        29.90S
WEST PLAINS    CLOUDY    64  46  52 N3        29.94R

$$



USA.gov is the U.S. government's official web portal to all federal, state and local government web resources and services.